SAS0377 ESSA-ESNU

Flight info

Callsign SAS0377
Flight time 0h 47m
Altitude 35000
Route RESNA DCT RIKPA DCT LENSO
Aircraft A320/M-SDE3FGHIJ1RWXYZ/ALB1

Departure

Time 2026-04-15 08:44
Airport Stockholm-Arlanda Airport (ESSA)

Arrival

Time 2026-04-15 09:31
Airport Umeå Airport (ESNU)
Time Latitude Longitude Altitude Speed Heading
2026-04-15 08:08 59.65396 17.93514 112 ft 0 kts 76°
2026-04-15 08:35 59.65391 17.93473 110 ft 4 kts 76°
2026-04-15 08:35 59.65383 17.93423 110 ft 4 kts 59°
2026-04-15 08:36 59.65367 17.93392 110 ft 4 kts
2026-04-15 08:36 59.65359 17.93392 111 ft 0 kts 346°
2026-04-15 08:40 59.65360 17.93392 112 ft 1 kts 346°
2026-04-15 08:40 59.65377 17.93383 111 ft 4 kts 346°
2026-04-15 08:41 59.65413 17.93366 112 ft 7 kts 346°
2026-04-15 08:41 59.65469 17.93344 112 ft 10 kts 356°
2026-04-15 08:41 59.65523 17.93338 110 ft 9 kts 346°
2026-04-15 08:41 59.65596 17.93302 109 ft 10 kts 349°
2026-04-15 08:42 59.65660 17.93364 109 ft 12 kts 45°
2026-04-15 08:42 59.65722 17.93492 111 ft 13 kts 46°
2026-04-15 08:42 59.65786 17.93623 113 ft 13 kts 45°
2026-04-15 08:42 59.65850 17.93752 114 ft 11 kts 47°
2026-04-15 08:43 59.65871 17.93846 117 ft 12 kts 75°
2026-04-15 08:43 59.65944 17.94421 124 ft 77 kts 76°
2026-04-15 08:43 59.66125 17.95836 124 ft 132 kts 76°
2026-04-15 08:43 59.66361 17.97770 485 ft 148 kts 77°
2026-04-15 08:44 59.66611 17.99740 1209 ft 146 kts 78°
2026-04-15 08:44 59.66866 18.01753 1756 ft 159 kts 80°
2026-04-15 08:44 59.67160 18.04023 2105 ft 182 kts 76°
2026-04-15 08:44 59.67940 18.06181 2574 ft 208 kts 40°
2026-04-15 08:45 59.69326 18.07106 3354 ft 224 kts
2026-04-15 08:45 59.70904 18.06979 4208 ft 228 kts
2026-04-15 08:45 59.72491 18.06545 5030 ft 239 kts 348°
2026-04-15 08:45 59.74159 18.05491 5464 ft 264 kts 345°
2026-04-15 08:46 59.75969 18.04363 6112 ft 277 kts 350°
2026-04-15 08:46 59.77887 18.04015 7007 ft 277 kts
2026-04-15 08:46 59.79813 18.04404 7890 ft 280 kts 10°
2026-04-15 08:46 59.81764 18.04844 8755 ft 284 kts
2026-04-15 08:47 59.83743 18.05298 9632 ft 289 kts
2026-04-15 08:47 59.85727 18.05756 10462 ft 294 kts
2026-04-15 08:47 59.87836 18.06248 10793 ft 317 kts
2026-04-15 08:47 59.90083 18.06777 11239 ft 331 kts
2026-04-15 08:48 59.92394 18.07317 11950 ft 337 kts
2026-04-15 08:48 59.94738 18.07859 12703 ft 341 kts
2026-04-15 08:48 59.97106 18.08404 13451 ft 345 kts
2026-04-15 08:48 59.99506 18.08954 14211 ft 349 kts 10°
2026-04-15 08:49 60.01935 18.09487 14874 ft 354 kts
2026-04-15 08:49 60.04421 18.09381 15522 ft 361 kts 356°
2026-04-15 08:49 60.06895 18.08842 16168 ft 364 kts 356°
2026-04-15 08:49 60.09426 18.08296 16819 ft 368 kts 356°
2026-04-15 08:50 60.11984 18.07751 17454 ft 372 kts 355°
2026-04-15 08:50 60.14567 18.07203 18100 ft 376 kts 355°
2026-04-15 08:50 60.17180 18.06648 18725 ft 380 kts 355°
2026-04-15 08:50 60.19821 18.06089 19293 ft 383 kts 355°
2026-04-15 08:51 60.22476 18.05525 19929 ft 385 kts 355°
2026-04-15 08:51 60.25155 18.04958 20570 ft 387 kts 355°
2026-04-15 08:51 60.27844 18.04390 21201 ft 390 kts 355°
2026-04-15 08:51 60.30505 18.03825 21811 ft 392 kts 355°
2026-04-15 08:52 60.33226 18.03244 22408 ft 394 kts 355°
2026-04-15 08:52 60.35967 18.03036 23007 ft 395 kts
2026-04-15 08:52 60.38693 18.03779 23588 ft 396 kts 14°
2026-04-15 08:52 60.41348 18.05320 24121 ft 398 kts 18°
2026-04-15 08:53 60.44003 18.06962 24603 ft 400 kts 18°
2026-04-15 08:53 60.46679 18.08618 25069 ft 403 kts 18°
2026-04-15 08:53 60.49371 18.10283 25523 ft 406 kts 18°
2026-04-15 08:53 60.52080 18.11956 25973 ft 408 kts 18°
2026-04-15 08:54 60.54771 18.13618 26402 ft 411 kts 19°
2026-04-15 08:54 60.57515 18.15320 26839 ft 414 kts 19°
2026-04-15 08:54 60.60271 18.17042 27266 ft 416 kts 19°
2026-04-15 08:54 60.63050 18.18783 27680 ft 419 kts 19°
2026-04-15 08:55 60.65845 18.20536 28085 ft 421 kts 19°
2026-04-15 08:55 60.68654 18.22293 28473 ft 424 kts 18°
2026-04-15 08:55 60.71483 18.24058 28856 ft 427 kts 18°
2026-04-15 08:55 60.74334 18.25838 29236 ft 430 kts 18°
2026-04-15 08:56 60.77201 18.27632 29610 ft 433 kts 18°
2026-04-15 08:56 60.80049 18.29424 30001 ft 435 kts 18°
2026-04-15 08:56 60.82952 18.31258 30393 ft 437 kts 18°
2026-04-15 08:56 60.85865 18.33105 30715 ft 440 kts 18°
2026-04-15 08:57 60.88798 18.34970 31051 ft 442 kts 18°
2026-04-15 08:57 60.91748 18.36850 31371 ft 445 kts 18°
2026-04-15 08:57 60.94715 18.38749 31683 ft 448 kts 18°
2026-04-15 08:57 60.97692 18.40654 32029 ft 449 kts 17°
2026-04-15 08:58 61.00682 18.42562 32431 ft 449 kts 17°
2026-04-15 08:58 61.06612 18.46338 33306 ft 449 kts 17°
2026-04-15 08:58 61.09592 18.48249 33743 ft 448 kts 17°
2026-04-15 08:59 61.12566 18.50168 34197 ft 447 kts 18°
2026-04-15 08:59 61.15535 18.52092 34601 ft 447 kts 18°
2026-04-15 08:59 61.18499 18.54015 34941 ft 447 kts 18°
2026-04-15 08:59 61.21475 18.55946 35263 ft 448 kts 17°
2026-04-15 09:00 61.24453 18.57878 35375 ft 448 kts 17°
2026-04-15 09:00 61.27411 18.59803 35414 ft 444 kts 17°
2026-04-15 09:00 61.33230 18.63596 35413 ft 440 kts 17°
2026-04-15 09:01 61.39070 18.67420 35412 ft 439 kts 17°
2026-04-15 09:01 61.44900 18.71258 35412 ft 439 kts 17°
2026-04-15 09:02 61.50727 18.75101 35418 ft 439 kts 17°
2026-04-15 09:02 61.56521 18.78932 35425 ft 439 kts 17°
2026-04-15 09:03 61.62347 18.82803 35428 ft 439 kts 17°
2026-04-15 09:03 61.68169 18.86694 35427 ft 439 kts 17°
2026-04-15 09:04 61.73991 18.90603 35428 ft 439 kts 17°
2026-04-15 09:04 61.79813 18.94536 35429 ft 439 kts 17°
2026-04-15 09:05 61.85581 18.98441 35225 ft 435 kts 16°
2026-04-15 09:05 61.88444 19.00380 34988 ft 431 kts 16°
2026-04-15 09:05 61.91287 19.02309 34743 ft 426 kts 16°
2026-04-15 09:06 61.94103 19.04224 34265 ft 424 kts 16°
2026-04-15 09:06 61.96901 19.06132 33778 ft 421 kts 16°
2026-04-15 09:06 61.99672 19.08026 33319 ft 417 kts 16°
2026-04-15 09:06 62.02424 19.09914 32862 ft 413 kts 16°
2026-04-15 09:07 62.05114 19.11770 32429 ft 410 kts 16°
2026-04-15 09:07 62.07819 19.13641 31978 ft 407 kts 16°
2026-04-15 09:07 62.10502 19.15486 31543 ft 404 kts 16°
2026-04-15 09:07 62.13170 19.17316 31120 ft 401 kts 16°
2026-04-15 09:08 62.15818 19.19139 30699 ft 398 kts 16°
2026-04-15 09:08 62.18445 19.20958 30257 ft 395 kts 16°
2026-04-15 09:08 62.21045 19.22762 29845 ft 390 kts 16°
2026-04-15 09:08 62.23614 19.24547 29459 ft 386 kts 17°
2026-04-15 09:09 62.26155 19.26321 29075 ft 382 kts 17°
2026-04-15 09:09 62.28640 19.28059 28699 ft 379 kts 17°
2026-04-15 09:09 62.31139 19.29802 28331 ft 376 kts 17°
2026-04-15 09:09 62.33619 19.31534 27949 ft 374 kts 17°
2026-04-15 09:10 62.36085 19.33264 27563 ft 372 kts 17°
2026-04-15 09:10 62.38537 19.34989 27175 ft 369 kts 17°
2026-04-15 09:10 62.40969 19.36704 26809 ft 367 kts 17°
2026-04-15 09:10 62.43386 19.38414 26405 ft 365 kts 17°
2026-04-15 09:11 62.45791 19.40122 26008 ft 363 kts 18°
2026-04-15 09:11 62.48151 19.41799 25614 ft 361 kts 17°
2026-04-15 09:11 62.50536 19.43493 25208 ft 360 kts 18°
2026-04-15 09:11 62.52909 19.45181 24809 ft 358 kts 18°
2026-04-15 09:12 62.55273 19.46864 24390 ft 357 kts 18°
2026-04-15 09:12 62.57626 19.48535 23964 ft 355 kts 18°
2026-04-15 09:12 62.59970 19.50200 23513 ft 353 kts 18°
2026-04-15 09:12 62.62290 19.51853 23105 ft 349 kts 18°
2026-04-15 09:13 62.64586 19.53493 22700 ft 346 kts 18°
2026-04-15 09:13 62.66832 19.55099 22300 ft 343 kts 18°
2026-04-15 09:13 62.69092 19.56724 21900 ft 340 kts 18°
2026-04-15 09:13 62.71334 19.58343 21503 ft 338 kts 18°
2026-04-15 09:14 62.73559 19.59950 21098 ft 336 kts 18°
2026-04-15 09:14 62.75775 19.61550 20708 ft 334 kts 18°
2026-04-15 09:14 62.77974 19.63143 20312 ft 333 kts 18°
2026-04-15 09:14 62.80167 19.64729 19924 ft 331 kts 18°
2026-04-15 09:15 62.82346 19.66303 19531 ft 330 kts 18°
2026-04-15 09:15 62.84492 19.67858 19137 ft 329 kts 18°
2026-04-15 09:15 62.86660 19.69436 18753 ft 328 kts 18°
2026-04-15 09:15 62.88821 19.71015 18321 ft 326 kts 19°
2026-04-15 09:16 62.90964 19.72578 17935 ft 324 kts 19°
2026-04-15 09:16 62.93095 19.74132 17552 ft 321 kts 19°
2026-04-15 09:16 62.95208 19.75675 17172 ft 319 kts 19°
2026-04-15 09:16 62.97310 19.77217 16794 ft 317 kts 19°
2026-04-15 09:17 62.99398 19.78751 16422 ft 315 kts 19°
2026-04-15 09:17 63.01474 19.80279 16050 ft 314 kts 19°
2026-04-15 09:17 63.03512 19.81779 15688 ft 313 kts 19°
2026-04-15 09:17 63.05572 19.83296 15322 ft 312 kts 19°
2026-04-15 09:18 63.07624 19.84814 14958 ft 311 kts 19°
2026-04-15 09:18 63.09669 19.86333 14597 ft 310 kts 19°
2026-04-15 09:18 63.11710 19.87846 14225 ft 309 kts 19°
2026-04-15 09:18 63.13746 19.89353 13833 ft 308 kts 19°
2026-04-15 09:19 63.15771 19.90851 13464 ft 306 kts 19°
2026-04-15 09:19 63.17757 19.92325 13110 ft 304 kts 19°
2026-04-15 09:19 63.19751 19.93818 12753 ft 302 kts 19°
2026-04-15 09:19 63.21741 19.95311 12398 ft 301 kts 19°
2026-04-15 09:20 63.23721 19.96790 12052 ft 300 kts 19°
2026-04-15 09:20 63.25656 19.98491 11688 ft 299 kts 29°
2026-04-15 09:20 63.27366 20.01068 11331 ft 296 kts 43°
2026-04-15 09:20 63.28899 20.04111 10877 ft 298 kts 43°
2026-04-15 09:21 63.30479 20.07244 10228 ft 308 kts 43°
2026-04-15 09:21 63.32078 20.10398 9875 ft 304 kts 43°
2026-04-15 09:21 63.33606 20.13403 9541 ft 292 kts 43°
2026-04-15 09:21 63.35098 20.16349 9127 ft 283 kts 43°
2026-04-15 09:22 63.36567 20.19264 8776 ft 282 kts 43°
2026-04-15 09:22 63.38025 20.22166 8443 ft 280 kts 43°
2026-04-15 09:22 63.39475 20.25056 8100 ft 279 kts 43°
2026-04-15 09:22 63.40908 20.27919 7891 ft 270 kts 43°
2026-04-15 09:23 63.42275 20.30648 7648 ft 260 kts 43°
2026-04-15 09:23 63.43613 20.33315 7219 ft 256 kts 43°
2026-04-15 09:23 63.44905 20.35893 6844 ft 248 kts 44°
2026-04-15 09:23 63.46167 20.38425 6521 ft 241 kts 44°
2026-04-15 09:24 63.47409 20.40922 6216 ft 239 kts 44°
2026-04-15 09:24 63.48643 20.43400 5914 ft 238 kts 43°
2026-04-15 09:24 63.49872 20.45873 5617 ft 236 kts 43°
2026-04-15 09:24 63.51129 20.48223 5325 ft 235 kts 34°
2026-04-15 09:25 63.52539 20.50075 5022 ft 234 kts 31°
2026-04-15 09:25 63.53945 20.51876 4738 ft 232 kts 31°
2026-04-15 09:25 63.55341 20.53668 4447 ft 230 kts 31°
2026-04-15 09:25 63.56705 20.55423 4144 ft 229 kts 31°
2026-04-15 09:26 63.58089 20.57187 3854 ft 227 kts 27°
2026-04-15 09:26 63.59553 20.58237 3557 ft 217 kts
2026-04-15 09:26 63.61029 20.58193 3280 ft 209 kts 350°
2026-04-15 09:26 63.62449 20.57526 3008 ft 208 kts 349°
2026-04-15 09:27 63.63862 20.56870 2733 ft 207 kts 348°
2026-04-15 09:27 63.65183 20.55666 2516 ft 203 kts 329°
2026-04-15 09:27 63.66297 20.53847 2486 ft 195 kts 322°
2026-04-15 09:27 63.67315 20.51918 2487 ft 193 kts 320°
2026-04-15 09:28 63.68320 20.49929 2492 ft 188 kts 320°
2026-04-15 09:28 63.69270 20.48036 2332 ft 177 kts 320°
2026-04-15 09:28 63.70166 20.46266 2108 ft 166 kts 320°
2026-04-15 09:28 63.71008 20.44593 1896 ft 157 kts 320°
2026-04-15 09:29 63.71802 20.43007 1684 ft 148 kts 320°
2026-04-15 09:29 63.72553 20.41504 1506 ft 141 kts 320°
2026-04-15 09:29 63.73278 20.40061 1336 ft 138 kts 320°
2026-04-15 09:29 63.73986 20.38659 1154 ft 137 kts 320°
2026-04-15 09:30 63.74698 20.37246 964 ft 136 kts 320°
2026-04-15 09:30 63.75408 20.35827 797 ft 136 kts 319°
2026-04-15 09:30 63.76125 20.34415 612 ft 137 kts 320°
2026-04-15 09:30 63.76838 20.33001 407 ft 136 kts 319°
2026-04-15 09:31 63.77544 20.31580 259 ft 136 kts 318°
2026-04-15 09:31 63.78246 20.30154 89 ft 136 kts 319°
2026-04-15 09:31 63.78896 20.28854 28 ft 94 kts 319°
2026-04-15 09:31 63.79171 20.28307 28 ft 26 kts 319°
2026-04-15 09:32 63.79271 20.28149 28 ft 7 kts 333°
2026-04-15 09:32 63.79279 20.28094 30 ft 3 kts 227°
2026-04-15 09:32 63.79263 20.28105 30 ft 4 kts 144°
2026-04-15 09:32 63.79226 20.28181 28 ft 10 kts 134°
2026-04-15 09:33 63.79172 20.28304 28 ft 9 kts 136°
2026-04-15 09:33 63.79161 20.28411 29 ft 10 kts 66°
2026-04-15 09:33 63.79211 20.28538 27 ft 11 kts 48°
2026-04-15 09:33 63.79245 20.28639 27 ft 6 kts 66°
2026-04-15 09:34 63.79240 20.28719 27 ft 5 kts 118°
2026-04-15 09:34 63.79219 20.28784 27 ft 3 kts 130°
2026-04-15 09:34 63.79217 20.28835 27 ft 5 kts 62°
2026-04-15 09:34 63.79238 20.28892 27 ft 3 kts 48°
2026-04-15 09:35 63.79247 20.28912 27 ft 1 kts 49°
2026-04-15 09:35 63.79247 20.28913 27 ft 0 kts 49°